Wind_Speed
45 45 44 43 42 40 39 37 38 37 34 31 29 27 25 24 24 24 26 27 29 30 30 31 32 32 33 34 34 35 35 35 36 37 39 41 42 44 46 48 50 52 54 56 59 61 63 66 68 69 71 73 74 76 77 79 80 81 82 82 82 81 81 81 81 81 81 81 82 82 82 83 83 84 84 85 87 88 89 89 89 90 90 90 91 91 92 92
45 45 43 43 42 40 39 40 42 39 34 31 28 26 25 24 24 24 25 26 27 28 29 30 30 31 31 31 32 33 34 35 36 38 40 42 44 46 48 50 52 55 57 59 62 64 66 68 71 73 74 75 76 78 79 79 79 78 78 77 77 77 77 77 77 77 77 77 78 78 79 80 80 81 81 82 84 85 86 86 87 87 88 89 90 90 91 91
45 45 44 43 42 41 41 43 43 38 33 30 27 25 25 24 25 26 26 27 27 28 28 28 28 29 29 30 32 33 35 36 38 40 42 44 46 48 51 53 55 57 60 62 65 67 70 72 73 75 76 77 78 78 77 76 74 74 73 72 73 73 73 74 74 74 74 75 75 76 77 78 79 79 80 81 82 84 84 84 85 85 86 87 88 88 88 89
46 44 44 43 42 42 43 44 42 36 31 29 27 26 26 26 27 27 27 28 28 27 27 27 27 28 30 31 33 34 36 38 40 42 44 47 49 51 53 55 57 60 63 65 68 70 72 74 75 77 77 77 75 73 71 70 70 69 70 69 70 71 71 73 74 74 75 76 76 77 79 79 80 81 82 83 84 85 86 86 86 86 87 87 87 87 87 88
45 42 42 44 44 42 42 43 40 36 31 28 27 27 27 28 28 28 29 29 28 27 27 28 29 31 32 33 34 36 38 40 42 44 47 49 51 53 55 57 59 62 65 68 70 72 74 76 76 76 74 72 70 68 67 67 67 68 68 69 69 71 72 73 74 75 76 76 77 79 79 80 81 82 83 85 86 87 88 89 89 89 89 89 89 89 90 90
46 42 41 43 44 43 43 42 39 36 31 28 29 29 29 29 29 29 30 29 28 27 28 29 31 32 33 35 36 38 40 43 45 47 48 50 52 54 57 59 62 65 68 70 72 74 75 75 73 70 68 66 66 66 66 66 66 67 67 68 68 69 70 71 72 73 73 74 75 76 77 78 79 81 82 84 86 88 90 91 91 91 92 92 92 93 94 95
47 45 43 42 42 43 42 40 37 34 30 28 29 29 28 28 29 30 30 29 28 28 29 30 32 33 35 36 38 40 42 44 46 47 49 51 53 56 59 62 65 67 69 71 72 73 71 68 65 64 63 63 63 63 63 63 63 64 64 65 66 66 67 68 69 70 71 71 72 73 74 75 77 78 80 82 84 87 89 91 92 93 94 94 95 96 97 98
46 46 44 41 40 41 40 37 35 32 29 28 27 26 26 27 29 31 30 29 29 29 30 32 33 34 36 38 40 42 44 45 46 48 51 53 56 59 61 64 66 68 70 70 69 66 63 61 60 59 59 59 58 59 59 59 60 61 61 62 63 64 65 66 67 68 69 70 71 72 72 74 75 77 78 80 83 85 87 89 91 93 94 95 96 97 98 99
45 46 45 42 39 38 36 34 32 30 29 28 26 25 26 28 30 31 30 30 30 31 32 33 35 36 38 40 41 43 44 46 48 50 53 56 58 61 63 65 66 67 66 64 61 59 57 56 56 55 55 55 55 56 56 57 58 59 59 61 62 63 65 66 66 67 68 70 71 72 72 74 75 76 77 78 81 83 86 88 90 92 93 95 96 98 99 100
43 45 45 42 39 36 34 32 30 29 28 27 26 26 28 30 31 30 30 31 31 32 33 34 36 37 39 41 42 44 46 48 50 53 55 58 60 62 63 64 64 62 59 56 54 53 52 52 52 52 53 53 53 53 54 55 56 58 60 62 63 65 67 67 67 68 69 71 72 72 74 75 76 77 77 78 80 82 85 87 88 90 91 93 95 97 98 100
43 42 42 40 39 36 34 32 30 30 29 28 27 28 30 32 31 30 31 32 32 33 34 35 37 38 40 42 43 45 47 49 52 54 56 58 60 61 61 60 57 54 52 50 49 49 49 49 50 50 50 50 51 51 53 54 56 59 62 64 65 68 69 69 69 70 71 73 73 72 73 76 77 78 78 79 81 82 84 85 87 88 90 92 93 95 97 98
42 40 38 37 37 35 33 32 30 29 29 28 28 29 31 32 31 31 31 32 33 33 34 35 37 39 41 42 44 46 48 51 53 54 56 58 59 58 56 53 50 48 47 47 47 47 47 47 48 48 49 49 50 51 53 56 58 62 65 66 68 71 73 72 72 73 74 74 74 72 70 74 76 77 78 80 82 83 83 84 85 86 88 90 91 93 95 96
41 39 36 35 35 33 31 30 29 29 28 27 27 29 31 31 30 30 31 32 32 33 34 36 38 39 41 43 45 47 49 51 52 54 55 55 54 51 47 46 45 45 45 45 46 46 46 47 47 48 49 50 52 54 56 58 61 63 66 68 69 73 77 77 76 76 78 78 77 74 71 72 74 75 78 80 81 82 83 83 84 85 86 87 88 90 92 93
38 37 35 34 33 32 31 30 29 28 27 26 27 28 30 31 31 31 32 33 33 34 35 37 39 40 42 44 45 47 48 50 51 52 51 49 46 43 42 42 42 42 43 43 44 44 45 46 47 48 50 52 54 56 58 60 62 64 67 70 71 73 78 80 80 79 81 81 81 78 74 74 76 77 79 80 80 80 81 82 82 83 84 85 86 87 88 90
35 35 34 33 32 32 31 30 29 28 27 26 27 29 31 31 31 32 33 33 34 35 37 38 39 40 42 43 44 46 47 48 48 46 43 41 40 40 40 40 40 41 41 42 42 43 44 45 47 50 53 55 56 58 60 63 65 66 68 71 73 75 77 81 83 82 82 82 82 80 76 77 79 80 82 81 80 80 79 80 80 80 81 81 82 83 85 86
32 33 33 32 31 31 31 31 29 28 27 27 28 30 31 31 31 32 33 34 35 36 37 37 38 39 40 42 43 45 45 43 41 39 37 37 38 38 39 39 39 39 40 41 42 43 45 47 49 51 54 57 59 61 63 65 67 69 71 73 76 79 80 81 84 85 84 83 82 80 78 79 81 82 83 82 81 80 79 79 78 78 77 78 78 79 80 82
30 32 32 31 30 31 31 31 29 28 28 28 30 31 31 31 32 33 34 35 35 35 35 36 36 37 39 40 41 41 39 36 35 35 35 36 36 36 36 36 37 38 39 41 42 44 46 48 50 53 56 59 62 64 64 65 67 70 73 75 78 82 84 84 85 86 85 83 82 81 80 81 82 82 81 81 81 80 80 79 78 77 76 75 75 75 76 78
28 29 30 29 29 29 30 30 30 30 30 30 31 31 32 32 33 34 34 33 32 32 32 33 35 36 38 38 37 35 33 32 32 33 34 33 33 33 34 35 36 38 41 42 43 45 48 51 54 56 59 62 65 67 67 68 70 73 76 78 80 83 88 87 87 88 84 84 84 81 80 81 81 80 79 79 80 80 79 79 77 76 75 74 73 73 74 75
26 27 27 26 25 26 26 28 30 31 31 31 31 32 32 32 32 31 30 29 29 29 30 31 33 35 34 33 31 30 30 30 31 31 31 30 30 31 33 35 37 39 41 44 46 49 52 55 57 59 61 63 67 70 73 74 76 79 82 85 85 86 91 92 92 92 88 86 86 82 81 81 79 77 77 77 78 77 77 76 75 74 73 73 72 72 72 73
25 24 24 23 22 21 22 24 26 28 29 30 30 30 29 29 27 26 25 25 26 27 29 31 32 31 30 28 27 27 28 28 28 28 27 27 28 29 31 34 38 41 43 47 51 53 55 57 59 60 62 66 71 75 78 80 82 84 87 90 91 92 95 97 97 97 94 90 87 83 82 82 79 77 76 75 74 73 73 72 72 71 71 70 70 70 71 71
24 22 22 21 19 19 19 20 21 22 22 23 23 23 23 22 22 21 22 23 24 27 28 29 28 26 25 25 25 26 27 27 26 26 26 26 27 29 32 36 41 44 47 51 54 55 58 60 61 63 66 71 76 80 83 85 86 88 91 93 95 96 98 99 101 101 99 94 89 85 84 83 80 78 75 73 71 70 69 69 69 68 68 68 69 69 70 70
23 22 22 21 19 17 16 15 15 15 16 16 17 17 17 18 18 19 20 22 25 25 25 24 23 22 22 22 23 23 23 23 23 23 24 25 27 30 33 38 44 48 50 54 57 58 61 64 65 68 72 76 79 83 86 89 90 91 94 96 99 101 100 100 102 104 103 98 91 86 85 85 82 79 76 73 71 69 68 67 67 67 67 67 68 69 69 70
25 23 22 20 18 15 14 12 12 12 13 13 14 14 14 15 17 18 20 22 23 22 21 20 19 19 19 20 20 20 20 21 22 23 24 26 28 32 35 39 46 51 53 56 60 62 64 67 69 72 76 79 83 85 88 91 93 94 96 98 100 104 104 103 103 105 105 102 95 88 85 86 84 80 76 73 71 70 68 67 67 67 67 67 68 68 69 70
24 22 20 18 16 14 12 11 10 11 11 11 12 12 13 14 16 18 19 19 18 17 17 17 17 17 17 18 19 19 20 21 23 24 27 29 31 33 36 41 47 53 55 57 61 65 67 69 72 74 78 81 85 88 90 91 93 96 97 99 102 105 107 108 107 107 106 103 98 91 85 85 84 79 75 73 71 69 68 67 67 67 66 67 67 67 68 68
22 21 20 17 15 12 11 9 9 9 9 9 10 11 12 15 16 17 16 14 14 14 15 15 15 15 16 17 17 19 21 22 24 27 29 32 35 36 39 42 47 53 57 59 62 66 68 71 74 77 79 83 87 90 93 93 94 96 97 100 103 106 109 110 110 109 109 105 100 94 87 83 82 79 75 72 70 69 68 67 66 66 66 65 66 66 65 66
22 20 17 15 13 11 9 8 7 7 7 8 9 11 13 14 14 13 11 11 12 13 13 13 13 13 15 16 17 20 22 24 27 29 32 35 38 40 41 43 47 52 58 61 63 66 68 71 75 78 81 84 88 92 94 96 96 97 99 101 105 108 109 111 112 112 112 108 102 96 90 84 80 76 73 70 69 68 67 67 66 65 65 64 64 64 64 64
20 17 14 12 11 9 7 6 6 6 6 8 10 11 12 11 10 9 9 10 11 11 10 11 12 12 14 16 18 20 23 25 27 30 34 37 40 42 44 45 47 52 58 62 64 66 69 73 76 80 83 85 88 92 95 97 98 99 100 102 105 108 110 112 114 114 113 109 103 96 90 84 79 74 70 69 67 66 66 65 65 64 64 63 62 62 62 62
18 15 13 11 9 8 6 5 5 6 7 9 10 9 8 7 6 7 8 9 8 8 9 9 11 12 14 17 19 21 24 26 30 33 36 39 42 45 47 48 50 53 57 61 64 67 71 74 77 80 84 86 89 92 95 98 100 101 101 102 105 108 110 112 115 116 114 110 104 97 89 84 79 74 70 69 68 67 66 65 64 63 63 63 63 63 64 64
17 15 12 10 9 7 6 5 5 6 8 8 7 5 4 4 5 7 8 7 7 8 8 9 10 13 15 18 21 24 27 30 33 35 37 40 43 46 48 52 55 57 57 60 64 68 71 75 78 81 84 87 90 93 96 99 101 101 101 101 104 107 110 112 114 115 115 113 108 101 95 88 82 77 73 71 70 69 67 66 65 64 63 63 64 63 64 64
17 14 12 10 9 7 5 5 6 7 7 5 2 1 2 4 5 7 7 6 6 7 8 9 11 13 15 19 22 25 28 30 32 35 38 42 45 48 52 56 58 60 60 62 65 69 72 75 79 81 84 88 91 94 97 100 102 102 101 100 101 105 107 110 114 116 116 117 115 109 103 97 88 81 77 73 72 71 69 68 65 64 63 63 63 62 62 61
16 14 12 10 8 7 6 6 6 5 4 2 1 1 3 4 6 7 6 5 6 6 7 9 11 13 16 19 23 27 30 31 34 37 41 45 48 51 53 55 57 59 62 63 66 69 73 76 79 82 85 88 91 94 97 100 102 102 102 101 100 102 105 108 113 117 120 122 122 116 109 102 94 86 81 77 75 74 71 68 65 64 64 64 63 63 62 62
15 13 12 10 8 7 6 6 5 4 4 3 2 3 4 5 5 6 5 5 5 5 7 9 11 14 18 22 27 30 31 33 36 39 42 44 46 48 50 52 54 57 61 64 67 70 74 77 80 83 86 88 91 92 95 99 101 103 104 104 104 106 109 111 116 121 124 125 125 121 113 105 98 90 85 81 77 75 72 69 67 65 64 64 62 61 61 62
14 12 10 9 8 6 6 6 6 6 5 4 3 5 6 6 5 5 5 6 5 6 8 10 14 17 21 25 28 30 32 34 36 39 41 43 45 48 51 53 56 59 62 66 68 70 73 77 81 84 87 90 92 94 96 100 103 106 108 109 111 113 115 119 122 125 128 127 126 124 117 109 101 94 88 84 80 77 75 71 68 65 64 64 63 62 62 62
13 12 10 9 8 7 7 8 8 7 6 5 5 7 7 6 6 5 6 6 5 7 9 12 16 20 23 27 29 31 33 35 37 39 41 44 46 49 52 54 57 60 63 67 69 72 75 78 82 86 89 92 95 97 100 103 106 108 110 112 113 114 116 121 125 128 130 129 127 125 121 114 107 99 92 87 84 80 76 72 68 67 67 67 66 65 64 63
12 11 10 9 9 9 10 10 8 7 7 6 7 8 8 7 6 5 5 5 6 8 11 15 19 22 25 27 29 31 33 35 38 40 42 44 46 48 51 54 57 60 62 65 69 73 77 81 84 88 91 93 96 99 102 104 106 108 109 110 112 112 113 116 120 124 127 129 128 127 125 119 111 103 96 90 85 82 78 75 73 71 71 71 69 68 67 65
12 11 10 10 11 12 11 10 8 8 9 9 8 9 8 6 5 5 5 6 7 10 14 17 21 23 25 27 29 31 33 35 38 40 42 45 47 49 52 54 57 59 62 66 69 73 78 81 84 88 91 94 97 100 103 105 107 108 108 109 111 112 113 113 115 119 122 127 130 130 129 125 117 109 101 94 89 86 84 81 78 76 74 74 71 69 67 66
12 12 13 13 13 12 11 11 10 9 9 10 10 9 9 6 5 5 5 6 9 13 16 19 21 24 25 27 29 31 33 36 39 41 43 45 47 50 52 55 57 60 63 67 70 74 78 81 84 87 91 94 98 101 104 107 108 109 109 109 110 111 112 114 116 120 123 126 129 131 131 130 125 117 108 101 95 92 89 86 83 79 76 75 72 69 67 65
14 15 16 15 13 12 12 11 12 11 10 10 10 10 8 6 5 4 5 8 11 15 18 20 23 25 26 28 30 32 35 37 39 42 44 46 48 51 54 56 58 61 64 69 71 74 77 81 84 88 91 95 98 101 103 106 108 109 110 111 111 112 114 117 120 125 128 128 129 131 132 132 131 125 117 109 103 98 94 90 86 81 77 75 73 70 67 65
17 17 16 14 14 14 13 12 11 12 12 11 11 10 8 6 4 4 6 10 14 17 19 22 24 26 28 29 31 34 36 38 40 42 44 47 49 52 55 57 59 61 65 69 72 75 78 82 85 89 93 96 98 100 102 105 107 109 110 110 112 113 116 119 123 126 129 131 131 132 133 135 135 132 126 118 111 104 98 93 89 85 81 78 75 72 68 65
17 17 16 15 15 14 14 13 12 12 12 11 10 9 7 5 4 5 8 12 16 18 21 23 25 27 29 30 32 34 36 38 41 44 46 48 51 53 56 58 60 63 66 69 72 75 79 82 86 89 93 96 98 100 103 106 108 109 110 110 110 111 112 115 119 122 126 131 135 136 136 137 138 137 132 125 117 109 103 98 94 90 86 82 79 75 71 67
16 16 16 15 16 15 13 14 14 13 13 11 10 8 6 4 4 7 11 14 17 19 21 24 26 28 29 31 33 35 37 40 43 45 48 50 52 54 56 59 61 63 66 69 72 75 78 82 85 89 93 96 99 102 104 106 108 110 112 112 112 112 112 113 116 118 122 128 134 137 138 139 139 138 136 130 122 115 108 102 98 94 90 86 83 80 76 71
16 16 15 15 16 16 15 15 14 13 12 10 9 7 5 5 6 9 12 15 17 19 22 24 26 28 30 32 34 36 39 42 45 48 50 51 52 54 57 60 62 64 67 70 72 75 77 80 83 87 91 95 97 99 102 105 108 111 113 115 115 115 116 116 118 119 120 122 128 133 136 138 138 138 137 133 127 120 113 107 102 98 94 90 86 84 80 75
16 17 17 16 15 16 17 17 15 13 11 9 8 7 6 6 8 10 13 14 17 19 22 24 26 28 30 32 35 37 40 43 46 49 50 51 53 55 58 61 63 65 69 72 74 76 77 79 81 83 87 90 93 96 100 104 108 111 114 117 118 118 117 118 119 121 122 121 124 129 133 135 136 136 136 135 131 124 118 111 105 100 97 93 89 86 83 79
18 19 19 17 16 16 17 16 15 12 10 9 8 6 6 7 9 11 13 14 16 19 21 24 26 28 30 33 36 38 41 44 47 49 50 52 53 56 59 61 64 67 70 73 76 78 80 81 83 84 86 89 93 97 101 105 109 113 115 118 120 119 118 117 116 119 123 125 124 126 131 134 135 136 136 135 133 128 121 115 108 102 98 95 91 88 85 83
19 20 20 19 19 18 17 16 14 12 10 9 7 5 6 8 10 12 13 14 17 19 21 24 26 28 31 33 36 39 42 44 46 49 51 52 55 57 60 62 65 68 71 74 77 80 83 85 87 89 92 95 99 103 106 108 111 114 116 118 119 120 119 117 115 116 121 126 128 127 129 131 133 135 135 135 134 130 125 119 113 107 101 97 94 90 87 85
20 21 20 20 20 19 17 15 12 10 9 7 5 5 6 9 11 13 14 15 17 19 21 23 26 28 31 34 36 39 41 44 46 48 51 53 55 58 60 63 66 69 72 74 77 80 83 86 89 91 94 98 101 105 108 109 111 113 115 116 118 120 120 119 118 117 118 122 127 128 128 130 133 135 135 135 135 133 129 123 117 111 105 100 96 93 90 87
20 20 20 22 21 19 16 14 11 9 8 5 4 5 7 9 11 13 14 16 18 19 21 23 25 28 31 33 36 38 41 43 46 48 51 53 55 58 60 63 66 69 71 74 76 79 82 85 88 91 93 96 98 102 105 107 109 111 114 116 117 119 121 121 120 119 118 119 124 128 128 129 132 135 136 137 137 136 135 130 124 117 111 105 100 97 94 90
20 19 21 22 22 19 16 13 10 8 6 4 3 5 7 9 11 13 14 16 18 19 21 22 25 28 30 33 36 38 41 43 45 48 50 53 55 57 59 62 65 68 70 73 75 78 81 84 87 89 91 94 96 99 102 105 107 109 112 115 116 118 121 122 122 122 122 121 124 128 130 130 131 133 136 139 140 141 139 135 130 123 117 111 105 101 97 93
19 19 20 22 21 18 15 12 9 7 5 3 2 4 7 9 11 12 14 16 17 18 20 22 24 27 30 33 36 38 40 42 45 47 50 53 55 57 59 61 64 67 70 72 75 77 80 83 85 88 90 92 95 97 100 102 105 107 110 113 115 117 120 122 124 124 123 123 124 127 131 132 131 132 136 139 142 142 141 138 133 127 121 115 110 105 100 96
18 18 21 22 21 17 14 11 9 6 4 2 1 4 6 8 9 11 13 15 16 18 19 21 24 27 30 33 36 38 40 42 44 47 50 52 55 57 59 61 64 67 69 72 74 77 80 82 85 87 89 91 93 95 98 101 103 105 107 110 114 116 119 121 123 123 123 123 124 125 128 130 131 132 135 138 140 141 141 139 136 131 126 120 114 108 103 99
17 17 20 22 21 17 13 11 8 6 3 1 1 3 5 7 8 10 12 14 16 17 19 21 24 27 30 33 35 37 39 41 43 47 49 52 54 57 59 62 64 67 69 71 74 76 79 81 84 86 88 91 93 94 97 99 101 103 105 108 112 115 119 121 124 125 124 123 123 123 124 127 130 131 132 134 137 138 139 139 138 135 131 125 119 112 107 102
16 16 19 22 20 16 13 10 8 5 4 3 2 4 5 6 8 9 11 13 15 16 18 21 24 27 30 32 35 37 39 41 43 46 49 52 54 57 59 62 64 66 68 71 73 75 78 80 83 85 88 90 92 95 96 97 99 101 104 108 111 115 119 121 124 126 126 126 125 124 124 127 131 132 131 131 133 137 139 139 140 138 134 130 124 118 111 106
Wind_Direction
198 203 205 209 212 215 218 219 222 224 223 225 227 229 231 234 240 245 250 253 255 258 260 263 267 270 273 275 278 280 283 285 287 288 289 290 291 293 295 296 297 297 298 298 298 298 298 298 298 299 299 299 299 299 299 298 297 296 296 295 294 293 292 291 290 290 289 288 288 287 286 285 285 284 283 283 282 281 280 279 278 278 277 276 275 274 273 272
198 203 204 207 211 214 217 219 222 223 223 225 228 230 234 240 245 251 254 256 257 259 261 264 269 272 275 278 282 285 287 289 290 291 292 293 295 297 298 298 299 299 299 299 299 300 300 300 301 301 301 301 301 300 299 298 297 296 295 295 294 293 293 292 291 291 290 289 289 288 287 287 286 285 284 284 283 282 281 280 280 279 278 276 275 274 273 273
199 203 203 206 210 212 215 220 223 223 222 224 227 232 239 245 249 253 256 257 257 258 261 266 271 275 278 282 285 288 289 291 292 293 294 296 298 298 299 299 299 299 300 300 301 301 301 302 302 302 302 302 301 300 299 298 298 297 297 296 296 295 295 294 294 293 293 292 292 291 291 290 289 288 288 287 286 285 284 283 282 281 279 278 277 276 275 274
200 203 205 207 209 213 217 221 225 224 222 223 228 235 241 246 249 253 255 256 258 261 265 270 274 279 283 286 288 289 290 292 294 295 297 298 299 299 299 300 300 300 301 301 302 302 302 303 303 303 303 302 302 301 301 300 300 300 300 301 301 301 301 301 300 300 299 299 298 297 297 296 295 294 293 291 290 289 288 286 285 283 282 281 279 278 277 276
197 201 207 210 209 212 218 222 225 225 224 225 230 237 241 245 249 254 256 258 263 268 272 275 279 284 287 288 289 290 291 293 295 297 298 299 299 300 300 300 300 301 301 302 302 303 304 304 304 304 304 304 304 304 305 305 306 307 308 308 308 308 307 306 305 304 303 302 301 300 299 298 297 295 294 293 291 290 289 287 286 285 284 283 282 280 279 277
195 196 205 210 208 211 217 221 223 224 224 225 231 237 241 246 251 254 258 263 268 273 276 279 282 286 288 289 289 290 293 295 297 298 299 299 300 300 300 300 301 301 302 303 304 305 305 306 306 306 307 308 309 311 313 314 314 314 313 312 310 309 308 306 305 304 303 302 300 299 298 297 295 294 292 291 290 288 287 286 286 285 284 283 281 280 279 277
195 196 202 208 208 210 215 218 221 223 224 227 233 238 243 248 251 254 258 265 270 273 276 280 283 286 287 289 290 292 294 296 298 298 299 300 300 300 300 301 302 303 304 305 306 307 307 308 309 311 313 315 317 317 317 317 315 314 313 311 309 308 307 306 305 305 304 303 302 301 300 298 296 294 293 291 289 287 286 285 284 283 282 281 279 278 277 276
195 198 204 209 209 211 215 218 221 225 229 233 237 241 244 246 248 252 258 264 268 271 275 279 282 285 287 289 291 293 295 296 297 298 299 299 300 301 302 303 304 306 307 308 308 309 310 313 315 318 319 320 319 318 317 316 314 313 312 311 310 310 309 309 309 309 309 308 307 306 304 301 299 296 294 291 289 287 286 284 283 282 280 279 278 277 276 275
197 199 204 210 211 212 215 218 222 226 230 234 235 237 239 242 247 253 259 263 266 271 275 278 281 284 287 289 292 294 295 296 297 298 300 300 302 303 304 306 307 308 309 310 312 314 317 319 321 321 321 320 319 318 317 316 315 314 314 314 315 315 314 313 313 313 313 312 311 309 307 304 301 298 295 293 290 288 286 284 282 281 279 278 277 276 275 274
199 200 204 208 211 213 214 216 219 223 227 229 231 234 238 243 249 255 260 264 268 272 275 278 282 285 288 290 292 294 295 296 298 300 301 303 304 306 307 309 309 311 312 315 318 320 322 323 322 321 320 319 318 318 317 318 319 319 320 321 321 320 318 317 317 317 316 315 313 312 309 307 304 301 298 295 292 289 286 284 282 280 279 278 277 276 275 274
200 203 204 207 211 213 214 215 217 221 224 227 231 236 242 246 251 257 262 266 270 273 277 281 284 286 288 290 293 295 297 299 300 302 304 306 307 308 310 311 312 315 317 320 322 323 323 322 321 320 319 318 318 319 321 323 326 326 327 326 327 325 323 322 322 322 320 318 315 314 312 309 306 303 301 297 293 290 287 285 283 282 281 279 278 277 276 274
200 204 205 206 210 212 214 216 218 221 225 229 234 240 246 250 254 258 263 268 272 275 280 283 285 287 289 292 295 297 299 301 303 305 307 308 309 311 313 315 317 320 322 323 324 323 323 321 320 319 320 321 324 327 329 331 332 332 332 331 332 330 327 326 326 325 323 320 317 315 314 311 307 305 302 297 294 291 289 287 286 284 283 281 280 278 277 276
199 205 206 207 209 211 214 217 220 223 226 230 237 243 249 253 256 260 265 269 272 276 280 282 285 288 291 294 297 299 302 304 306 307 308 310 312 314 317 320 322 324 325 325 325 324 324 323 324 326 328 331 333 335 335 336 336 337 336 335 335 333 331 331 330 329 327 325 322 320 319 314 309 305 301 297 295 293 292 291 289 287 285 283 281 280 279 277
196 203 207 208 208 210 213 218 221 224 228 232 238 245 251 254 257 261 265 269 273 277 280 283 287 291 294 297 300 302 304 306 308 310 312 314 317 319 322 324 325 326 326 325 325 326 326 328 331 334 337 338 338 339 340 340 340 340 340 338 338 337 335 334 334 333 331 329 327 325 324 318 312 307 301 298 297 296 295 293 291 289 288 286 284 282 280 279
193 199 206 209 209 210 213 218 222 225 229 234 240 246 252 256 260 264 268 272 275 278 281 286 291 295 298 300 302 304 306 309 311 314 316 318 321 323 325 326 326 326 326 326 327 329 332 336 339 341 342 342 342 343 344 345 344 343 342 341 340 339 338 338 337 336 335 333 331 329 326 320 313 308 305 303 303 301 298 296 294 292 290 289 287 285 283 281
190 194 202 207 209 211 214 218 222 226 231 236 241 247 253 258 263 266 270 273 276 280 286 291 295 298 300 302 305 308 311 313 315 317 319 322 325 327 328 328 328 328 328 331 335 339 341 343 344 345 346 346 346 346 347 348 347 346 345 344 344 342 342 342 340 339 338 336 334 331 328 321 315 312 310 309 307 304 302 299 297 295 293 291 288 286 285 283
188 192 198 204 208 211 214 218 222 226 231 237 243 248 254 259 263 266 269 274 280 286 291 295 298 300 303 307 310 312 314 315 317 320 323 326 329 330 329 328 329 332 336 341 344 345 346 347 349 349 350 350 350 350 350 351 350 349 348 348 348 346 345 345 343 341 341 339 337 334 330 322 317 316 314 312 309 307 305 303 301 298 296 293 290 288 285 283
187 191 195 201 207 210 214 218 222 226 231 237 244 250 255 259 263 268 274 280 287 292 296 298 301 305 309 311 312 312 314 317 321 325 327 330 331 331 331 332 337 343 347 349 349 350 351 353 355 355 355 355 354 354 354 354 353 353 352 351 351 350 347 347 346 344 344 342 339 336 330 323 320 318 316 313 311 310 308 306 304 301 298 296 293 291 288 286
183 187 192 200 207 210 214 218 223 227 232 238 244 250 256 261 267 274 281 287 292 295 299 303 307 311 312 311 312 316 320 324 327 329 332 333 332 333 338 343 348 353 354 355 356 358 359 360 0 1 1 0 359 358 357 358 357 356 355 354 354 353 351 350 349 346 346 346 342 338 331 324 322 320 317 315 314 313 310 308 305 303 301 299 297 294 291 289
178 182 189 198 205 209 212 217 223 228 233 239 245 252 259 266 273 281 287 291 295 299 304 309 311 310 310 312 317 322 326 329 331 333 334 333 334 339 345 349 355 360 2 3 5 4 4 4 5 4 4 4 3 2 1 1 0 359 358 357 356 356 355 353 351 348 348 348 344 339 332 327 325 323 321 320 318 314 311 309 307 305 303 300 298 295 293 291
173 178 185 192 200 205 210 215 222 228 235 241 248 255 263 271 279 285 290 295 301 306 310 311 311 312 316 322 327 329 332 334 335 335 335 336 340 346 352 358 5 9 9 9 9 8 8 8 8 8 8 8 6 5 3 3 2 1 360 359 357 357 357 356 353 351 350 349 346 341 334 330 328 326 325 323 319 315 313 311 309 306 304 301 299 297 294 292
173 176 183 189 195 202 209 215 223 232 239 247 254 262 270 277 284 289 297 304 308 311 311 312 316 323 329 332 333 333 333 332 331 333 336 340 349 356 1 8 13 14 13 12 12 11 12 12 12 11 11 10 9 7 6 4 3 2 1 360 359 358 358 358 356 353 352 350 348 344 338 332 331 330 329 325 321 319 316 314 311 308 306 303 301 299 297 295
175 177 182 186 192 200 207 215 226 237 246 253 260 268 276 283 291 299 306 309 310 311 315 322 330 334 335 334 333 331 331 334 338 343 346 353 2 6 8 12 15 17 16 15 15 15 15 15 14 14 14 13 11 10 8 6 4 3 2 1 0 359 359 359 358 356 354 351 348 346 341 335 334 334 332 328 325 323 320 317 314 311 309 306 304 302 300 298
176 178 181 185 191 198 204 214 229 240 249 258 267 278 288 296 303 308 309 310 312 318 328 336 338 337 335 334 335 337 341 346 351 355 0 6 10 10 12 14 17 19 18 17 17 17 17 17 16 16 15 14 13 11 10 8 6 4 3 2 1 0 360 360 360 358 356 353 349 348 345 339 337 337 334 331 328 326 323 320 317 315 312 309 307 305 303 301
176 180 183 186 190 197 206 218 233 244 254 268 282 294 301 305 308 309 310 313 321 333 341 341 340 341 340 342 344 348 355 359 1 6 11 14 15 14 14 14 17 20 19 18 18 18 17 18 17 16 16 15 14 13 11 9 7 5 4 2 2 2 1 360 360 360 358 355 351 349 347 343 340 339 336 334 331 329 326 322 320 317 314 311 309 306 305 303
175 178 181 185 190 199 210 222 236 250 268 287 297 302 306 308 307 309 317 327 339 347 346 345 349 349 350 354 355 0 9 12 14 17 18 18 18 17 15 14 16 20 21 19 18 18 17 17 17 16 15 15 15 13 12 10 8 6 5 4 3 3 2 1 0 1 360 357 353 351 349 346 344 342 339 336 334 331 328 324 322 319 316 314 312 310 309 307
173 175 177 183 191 201 211 223 240 264 286 296 299 304 306 306 309 321 335 345 354 355 350 355 1 358 1 4 5 12 17 16 17 19 19 20 20 19 18 14 14 18 22 21 18 18 17 16 17 16 15 15 14 13 12 10 9 8 6 5 4 4 3 1 1 1 1 359 356 354 351 349 347 345 342 339 336 334 331 328 325 323 321 319 317 315 313 311
171 173 176 182 190 198 207 223 248 275 288 294 298 301 302 308 328 343 349 357 4 3 5 11 9 5 9 10 13 19 20 18 20 21 21 22 21 21 20 16 13 15 21 21 18 17 17 16 16 16 14 13 13 13 12 11 10 9 8 6 5 4 4 3 1 1 1 0 358 356 354 353 351 349 346 344 340 338 335 332 330 328 326 323 322 320 318 316
170 172 176 182 186 190 203 227 256 274 284 289 292 292 302 336 353 357 3 9 15 19 23 21 12 12 17 20 23 25 24 25 25 25 23 23 22 22 21 19 17 15 17 20 19 16 17 16 15 15 14 13 13 13 12 11 10 9 9 7 7 6 5 4 2 2 2 1 1 359 357 356 355 353 351 348 345 342 340 337 335 333 330 328 326 324 321 319
171 175 178 179 181 190 210 236 258 271 274 273 267 289 354 8 5 14 23 24 31 35 30 23 17 17 19 21 24 25 26 27 26 25 24 22 22 22 21 20 18 15 14 18 19 17 16 15 15 15 15 14 13 13 12 11 10 9 8 8 7 7 6 5 3 2 3 3 3 2 1 359 358 356 354 352 349 347 344 342 339 336 333 331 328 326 323 321
174 175 173 173 181 199 221 239 251 253 239 204 140 51 32 30 26 37 45 41 45 41 27 21 16 12 15 20 23 25 27 27 26 25 23 22 22 21 21 20 18 16 14 15 19 18 15 15 15 14 15 15 14 13 12 11 10 9 8 6 5 6 5 5 4 3 4 5 5 4 3 0 359 358 356 355 353 351 348 345 342 339 337 335 332 330 327 324
168 167 167 175 190 206 220 227 222 200 168 138 102 67 58 52 48 59 62 54 52 36 18 15 12 15 23 28 30 31 30 30 29 27 25 24 23 22 22 21 20 18 15 15 17 18 15 14 14 14 14 15 14 14 13 11 10 9 8 6 3 4 4 4 5 5 5 7 6 5 4 2 1 0 358 357 356 353 351 349 346 344 341 338 335 332 329 326
161 165 173 183 192 200 202 192 175 154 136 119 100 81 73 72 70 70 65 61 53 30 18 18 21 27 33 34 33 32 32 31 30 28 25 24 23 22 22 21 20 18 16 14 15 18 17 14 14 14 14 14 14 13 13 12 11 10 9 8 5 4 5 6 6 6 6 7 7 6 5 4 3 2 1 360 358 356 355 352 349 346 344 342 339 337 334 331
164 170 176 179 181 179 170 160 150 138 124 114 102 92 87 88 84 75 69 62 42 26 23 26 32 36 37 35 34 33 33 31 29 27 25 23 22 21 21 20 19 17 15 13 11 15 17 15 14 14 13 14 14 13 13 13 12 11 10 10 8 6 6 7 7 7 6 6 7 7 6 6 5 4 4 2 360 358 357 355 352 350 349 347 344 341 338 335
164 167 170 170 166 157 150 144 138 129 121 113 104 100 100 98 90 80 69 54 36 29 33 36 39 39 37 35 35 34 33 30 28 26 24 23 22 21 20 18 18 17 15 13 10 10 13 14 13 13 13 14 14 14 14 13 12 11 11 11 10 7 6 8 10 9 7 5 6 7 8 8 7 6 5 4 2 0 360 359 357 355 353 351 349 346 343 340
160 161 160 155 149 146 143 135 126 125 123 118 110 106 106 104 94 83 64 49 41 37 40 43 42 39 37 36 35 34 32 30 28 26 23 22 20 19 18 17 17 16 15 14 11 9 11 13 14 13 13 13 14 14 14 14 13 12 11 11 11 9 6 8 10 11 9 7 6 7 8 8 8 8 7 6 5 3 2 2 0 358 357 355 352 349 347 344
156 153 147 144 141 139 136 128 122 123 126 124 119 114 111 108 97 79 63 51 44 43 45 44 41 38 37 36 34 32 30 28 26 24 22 20 18 16 15 15 15 16 16 15 13 11 12 14 14 14 14 14 14 14 14 14 13 12 12 11 11 11 8 7 9 11 11 10 9 8 8 9 9 9 8 7 7 6 5 4 3 0 359 357 355 353 350 348
149 146 142 141 138 131 126 125 127 128 130 129 123 119 116 112 99 77 61 53 49 47 46 43 39 37 36 34 32 30 28 26 24 22 20 18 16 15 14 14 14 16 17 17 16 15 14 14 15 16 15 14 14 15 15 15 14 13 12 12 12 12 11 9 9 12 12 11 10 9 9 9 10 9 9 8 8 8 6 5 4 2 1 360 358 356 354 351
145 142 140 137 133 126 123 127 134 135 136 133 126 121 120 112 97 72 58 56 53 49 46 43 40 37 35 32 30 27 25 24 22 20 18 16 15 14 13 13 14 16 19 20 20 18 16 15 15 16 16 15 14 15 15 15 15 14 13 13 13 13 14 12 11 12 13 12 11 10 10 10 10 10 10 9 9 8 7 6 5 4 2 1 1 359 357 355
143 140 137 133 127 124 127 133 140 141 138 135 128 124 121 110 88 64 59 58 54 49 45 42 39 36 34 31 28 26 24 22 20 18 17 16 15 14 14 13 14 16 19 22 22 21 18 17 16 15 16 15 14 14 15 15 16 15 14 14 14 14 15 15 13 12 14 14 12 11 11 11 11 11 11 10 9 8 8 7 6 5 4 3 2 1 0 359
140 137 135 132 128 127 133 140 145 144 139 135 130 124 120 104 77 64 62 58 52 48 44 41 38 34 32 29 26 24 22 20 19 17 16 16 15 15 14 14 14 16 17 19 21 21 19 17 16 15 15 15 14 14 15 15 16 16 14 14 14 14 14 16 14 13 14 16 15 13 13 12 12 12 12 11 10 9 9 8 7 6 5 4 3 3 2 1
138 136 133 132 131 134 141 146 147 144 140 137 129 122 114 91 72 64 61 56 51 47 42 38 35 32 29 26 24 22 21 19 18 17 16 16 16 15 15 14 14 14 15 15 17 19 19 18 16 15 15 15 15 14 14 15 16 16 15 14 14 14 14 15 15 14 13 16 17 16 15 14 13 13 13 12 11 10 9 9 8 7 6 5 4 3 3 2
141 137 132 130 134 141 146 147 147 145 142 137 127 117 103 79 65 60 58 53 48 43 38 34 31 29 26 24 22 21 20 20 18 17 17 16 16 15 15 14 14 13 13 12 13 15 16 17 17 16 15 14 14 14 13 14 15 16 16 15 15 15 14 15 15 15 13 14 17 18 17 15 14 14 13 13 13 12 11 10 9 9 8 7 6 4 4 3
144 138 132 132 139 148 150 147 147 147 143 134 123 112 90 67 57 54 53 49 43 37 34 31 28 26 24 23 22 21 21 20 19 18 17 17 16 15 15 14 14 13 12 11 11 11 13 15 15 16 16 16 16 16 15 14 15 16 17 16 15 15 15 14 15 15 14 13 15 18 18 17 16 15 14 14 14 14 12 11 10 10 9 8 7 6 5 4
143 136 133 138 146 152 151 150 152 150 141 130 118 100 74 58 52 50 49 45 38 32 30 29 26 25 23 22 22 21 20 20 19 17 16 16 16 16 15 14 14 13 12 12 11 10 11 13 13 13 14 15 15 15 16 15 15 15 16 16 15 15 15 14 14 15 16 15 15 17 19 18 17 16 15 14 14 15 14 13 12 11 10 10 9 7 6 6
141 135 136 144 150 153 153 154 157 150 138 129 113 86 62 54 50 49 46 40 33 30 29 27 25 23 22 22 21 20 19 18 17 15 15 15 15 15 15 15 14 14 13 12 12 11 10 11 11 12 12 13 13 13 14 14 14 14 15 15 15 15 15 15 14 14 16 16 15 16 18 18 18 17 16 15 14 15 15 15 14 13 12 11 10 9 8 8
140 136 141 149 153 155 156 159 159 150 139 127 103 75 57 51 49 48 43 36 32 30 28 25 23 22 20 20 18 17 17 15 14 13 13 13 14 14 14 14 14 13 13 12 12 11 10 9 10 10 11 12 12 12 12 13 13 13 14 14 15 14 14 14 14 14 15 16 16 16 17 18 19 18 17 16 15 15 15 15 14 14 13 12 11 11 10 9
140 140 147 153 156 158 160 163 161 153 140 125 90 64 53 50 48 45 39 33 30 28 25 22 21 19 18 16 15 14 13 12 11 11 11 11 12 12 12 12 12 12 12 11 11 10 10 9 9 9 10 10 11 12 12 12 12 12 13 13 14 14 13 14 14 15 15 15 16 16 16 17 19 19 18 18 17 16 15 15 15 15 14 13 13 12 11 10
142 145 153 158 160 161 164 166 162 155 145 126 71 49 48 47 45 42 35 30 26 24 21 18 17 16 14 13 12 11 10 9 8 8 9 9 9 10 10 11 11 11 11 11 11 10 10 10 9 9 9 9 10 11 11 11 11 12 12 12 13 13 13 13 14 15 15 15 16 16 16 17 18 19 19 19 19 18 16 16 16 16 15 15 14 13 12 12
146 153 160 163 164 165 167 168 162 159 160 145 38 33 39 40 40 36 30 26 22 18 16 14 13 12 11 10 10 9 8 7 6 6 7 7 7 8 9 10 10 11 11 10 11 11 11 10 10 9 9 9 9 10 10 10 11 11 11 11 12 13 13 13 13 14 15 15 16 16 16 16 17 19 20 20 20 20 18 17 16 16 16 16 15 14 13 13
153 160 166 168 169 168 169 169 168 173 187 217 341 10 24 30 31 28 23 20 16 13 11 9 8 8 8 8 8 7 6 5 4 4 5 5 6 6 7 8 9 10 10 10 10 10 10 10 10 9 9 9 9 9 10 10 10 10 10 11 11 12 13 13 13 13 14 15 16 16 15 15 16 18 19 20 20 20 19 18 16 16 17 17 16 16 15 14
160 166 171 173 172 172 172 175 179 190 211 247 303 345 4 14 19 18 14 11 9 6 4 3 4 5 6 6 5 4 3 1 1 2 2 3 4 5 6 7 8 8 8 8 8 8 9 9 9 9 9 8 8 9 9 9 9 9 10 10 10 11 12 13 13 13 13 14 15 15 15 15 15 15 17 19 20 19 19 18 17 17 17 17 17 17 16 15
Height
10704 10708 10712 10717 10720 10723 10726 10729 10730 10733 10737 10741 10743 10744 10746 10748 10749 10750 10750 10750 10750 10750 10751 10751 10751 10750 10750 10749 10749 10748 10747 10747 10745 10744 10742 10741 10739 10737 10735 10733 10731 10729 10726 10724 10721 10718 10715 10712 10709 10706 10703 10699 10695 10691 10686 10681 10676 10671 10666 10660 10655 10650 10645 10640 10636 10631 10627 10622 10617 10612 10607 10603 10598 10594 10589 10584 10579 10574 10570 10567 10566 10563 10560 10557 10554 10552 10551 10549
10703 10706 10711 10715 10719 10723 10725 10726 10727 10731 10736 10740 10742 10744 10745 10747 10748 10748 10748 10748 10748 10748 10748 10748 10748 10748 10748 10747 10746 10745 10744 10743 10742 10740 10739 10737 10736 10734 10732 10730 10727 10725 10722 10719 10717 10714 10711 10708 10704 10700 10697 10693 10688 10683 10678 10672 10667 10662 10657 10651 10645 10640 10635 10630 10625 10621 10616 10611 10606 10601 10596 10591 10586 10582 10577 10572 10567 10561 10557 10555 10553 10549 10546 10543 10540 10538 10537 10536
10702 10705 10709 10713 10718 10721 10722 10723 10726 10731 10736 10739 10741 10743 10745 10745 10745 10745 10746 10746 10746 10746 10746 10746 10746 10746 10745 10745 10744 10743 10742 10741 10739 10737 10736 10734 10733 10730 10728 10726 10723 10721 10718 10715 10712 10709 10706 10702 10698 10694 10690 10685 10680 10674 10669 10663 10658 10652 10647 10642 10635 10630 10625 10619 10614 10610 10605 10600 10595 10590 10584 10579 10574 10569 10565 10560 10554 10548 10544 10542 10539 10535 10531 10528 10526 10525 10524 10523
10701 10705 10709 10712 10716 10720 10721 10722 10726 10731 10735 10738 10741 10742 10743 10743 10743 10744 10744 10744 10744 10744 10745 10745 10744 10744 10743 10742 10742 10741 10739 10738 10736 10735 10733 10731 10729 10727 10725 10722 10719 10716 10713 10710 10707 10703 10700 10696 10691 10687 10681 10676 10670 10665 10659 10653 10648 10642 10637 10631 10625 10619 10613 10607 10602 10598 10593 10588 10583 10577 10572 10567 10562 10557 10552 10546 10540 10534 10529 10526 10523 10520 10516 10513 10511 10510 10509 10507
10701 10705 10708 10710 10714 10718 10720 10722 10726 10731 10734 10737 10740 10740 10741 10741 10742 10742 10741 10741 10742 10743 10743 10742 10742 10741 10741 10740 10739 10738 10736 10735 10734 10732 10730 10728 10726 10723 10721 10719 10716 10713 10709 10706 10702 10698 10693 10688 10683 10678 10672 10666 10661 10655 10650 10643 10637 10632 10626 10621 10615 10609 10604 10598 10592 10588 10583 10578 10572 10566 10561 10555 10550 10544 10538 10532 10527 10520 10514 10510 10507 10504 10501 10498 10496 10494 10491 10488
10699 10703 10706 10708 10713 10717 10719 10722 10726 10729 10732 10736 10738 10738 10739 10740 10740 10740 10739 10740 10741 10741 10741 10740 10740 10739 10739 10738 10737 10735 10734 10733 10731 10729 10727 10725 10723 10720 10717 10715 10712 10708 10705 10700 10696 10691 10686 10680 10674 10669 10663 10657 10651 10646 10640 10634 10628 10623 10617 10612 10607 10602 10596 10590 10584 10579 10574 10569 10563 10557 10551 10544 10538 10532 10526 10519 10513 10506 10500 10495 10491 10488 10485 10482 10479 10476 10473 10470
10698 10702 10704 10707 10711 10715 10718 10722 10725 10728 10731 10734 10736 10737 10738 10739 10739 10738 10738 10739 10739 10739 10739 10738 10738 10737 10736 10735 10734 10733 10732 10730 10728 10726 10725 10722 10720 10717 10714 10711 10707 10703 10699 10694 10689 10684 10678 10673 10667 10661 10655 10650 10644 10639 10634 10628 10622 10617 10612 10606 10600 10595 10589 10583 10577 10571 10565 10559 10553 10547 10540 10533 10526 10520 10514 10507 10499 10493 10486 10481 10476 10472 10469 10466 10462 10458 10455 10452
10697 10701 10703 10706 10711 10714 10718 10721 10725 10728 10731 10733 10735 10736 10737 10737 10736 10735 10737 10737 10737 10737 10737 10736 10736 10735 10734 10733 10732 10730 10729 10727 10725 10724 10722 10719 10716 10713 10710 10707 10703 10698 10693 10688 10683 10677 10672 10666 10661 10655 10650 10645 10640 10634 10630 10624 10618 10613 10606 10600 10594 10588 10582 10575 10569 10563 10556 10550 10543 10536 10529 10521 10514 10507 10502 10494 10486 10480 10473 10467 10462 10457 10453 10449 10445 10441 10438 10435
10697 10701 10703 10706 10710 10714 10718 10721 10724 10727 10730 10732 10733 10735 10735 10734 10733 10734 10735 10735 10735 10735 10735 10734 10733 10732 10731 10730 10729 10727 10726 10724 10723 10721 10718 10715 10712 10709 10705 10702 10697 10693 10687 10681 10676 10671 10666 10661 10656 10651 10646 10642 10636 10631 10625 10620 10614 10607 10600 10594 10588 10581 10574 10567 10562 10556 10548 10540 10532 10525 10517 10509 10502 10494 10488 10481 10473 10466 10459 10452 10447 10442 10437 10433 10429 10425 10422 10419
10696 10700 10703 10706 10710 10714 10717 10721 10723 10726 10728 10730 10731 10732 10731 10731 10732 10733 10733 10733 10733 10733 10733 10732 10731 10730 10729 10727 10726 10725 10723 10721 10720 10717 10714 10711 10708 10705 10700 10696 10691 10687 10682 10676 10671 10666 10662 10657 10652 10648 10643 10638 10633 10627 10621 10615 10608 10600 10593 10587 10580 10572 10564 10558 10553 10547 10539 10530 10523 10516 10506 10497 10489 10481 10475 10468 10459 10451 10443 10436 10432 10426 10422 10418 10413 10410 10406 10402
10696 10699 10703 10706 10710 10713 10717 10720 10722 10724 10726 10728 10729 10729 10729 10729 10730 10731 10731 10731 10732 10731 10731 10730 10729 10728 10726 10725 10724 10722 10720 10718 10716 10714 10711 10707 10704 10700 10695 10691 10686 10681 10677 10672 10668 10663 10659 10654 10650 10645 10640 10635 10629 10623 10617 10610 10603 10594 10586 10579 10572 10564 10555 10549 10544 10537 10529 10520 10512 10507 10498 10485 10476 10468 10460 10452 10443 10435 10428 10422 10417 10412 10408 10403 10398 10394 10390 10386
10695 10699 10703 10706 10709 10713 10716 10719 10721 10723 10725 10727 10728 10727 10727 10728 10729 10729 10730 10730 10730 10729 10729 10728 10726 10725 10724 10723 10722 10720 10718 10715 10713 10710 10707 10703 10699 10694 10690 10685 10681 10677 10673 10669 10665 10661 10657 10652 10647 10641 10636 10630 10624 10618 10611 10604 10597 10588 10579 10572 10565 10553 10544 10539 10534 10526 10517 10508 10500 10496 10491 10477 10464 10455 10445 10435 10426 10419 10413 10409 10404 10399 10394 10389 10384 10379 10374 10370
10695 10699 10702 10706 10709 10712 10715 10717 10720 10722 10724 10725 10726 10725 10725 10726 10727 10728 10728 10728 10727 10727 10726 10725 10724 10723 10723 10721 10719 10717 10715 10713 10710 10707 10703 10699 10694 10690 10686 10681 10677 10673 10669 10665 10661 10657 10653 10647 10642 10636 10630 10624 10618 10612 10605 10598 10591 10584 10574 10566 10559 10546 10533 10526 10522 10513 10502 10493 10485 10480 10479 10467 10453 10442 10430 10419 10411 10405 10400 10396 10391 10385 10380 10374 10370 10365 10360 10356
10695 10699 10702 10705 10708 10711 10714 10716 10718 10720 10723 10724 10724 10724 10724 10725 10726 10726 10726 10726 10725 10725 10724 10723 10723 10722 10721 10719 10717 10715 10712 10710 10706 10703 10698 10694 10690 10686 10682 10678 10674 10670 10667 10663 10659 10655 10650 10644 10638 10631 10626 10620 10614 10608 10601 10594 10586 10579 10569 10558 10551 10542 10528 10517 10510 10503 10491 10481 10471 10464 10461 10449 10435 10424 10412 10404 10399 10395 10389 10382 10376 10370 10365 10360 10355 10351 10346 10341
10695 10698 10701 10704 10707 10710 10713 10715 10717 10719 10721 10722 10723 10723 10723 10723 10724 10724 10724 10724 10723 10723 10723 10722 10722 10720 10718 10716 10714 10712 10709 10706 10702 10698 10694 10690 10687 10683 10680 10676 10672 10669 10666 10662 10657 10653 10647 10641 10635 10628 10621 10615 10609 10604 10597 10589 10579 10572 10564 10554 10545 10537 10527 10514 10501 10494 10484 10472 10461 10452 10446 10433 10417 10405 10393 10389 10385 10380 10374 10368 10362 10357 10351 10346 10341 10336 10331 10326
10694 10698 10701 10703 10706 10709 10712 10714 10716 10719 10720 10721 10721 10721 10722 10722 10723 10723 10722 10722 10722 10722 10722 10721 10720 10718 10716 10714 10712 10709 10705 10702 10698 10695 10691 10688 10684 10681 10677 10674 10670 10668 10664 10659 10654 10649 10643 10637 10631 10625 10618 10612 10605 10598 10591 10583 10575 10566 10559 10550 10540 10528 10520 10511 10496 10485 10476 10466 10453 10442 10432 10418 10401 10390 10380 10374 10368 10361 10356 10351 10345 10341 10336 10331 10326 10321 10316 10310
10694 10697 10700 10703 10706 10708 10711 10714 10716 10718 10719 10719 10720 10720 10721 10721 10721 10721 10721 10721 10721 10721 10721 10719 10717 10716 10714 10711 10708 10705 10702 10699 10696 10692 10689 10686 10683 10680 10676 10673 10669 10666 10661 10656 10651 10645 10639 10634 10628 10623 10616 10608 10599 10592 10588 10583 10575 10566 10555 10545 10534 10520 10510 10503 10491 10478 10468 10457 10446 10433 10419 10402 10387 10378 10370 10360 10351 10344 10339 10333 10329 10324 10320 10316 10311 10306 10301 10295
10693 10697 10700 10703 10705 10708 10711 10713 10715 10716 10717 10718 10719 10719 10719 10719 10719 10720 10720 10721 10721 10720 10719 10717 10715 10713 10711 10708 10705 10702 10700 10697 10694 10691 10688 10685 10682 10679 10675 10671 10667 10662 10657 10651 10646 10641 10636 10630 10624 10618 10610 10602 10595 10589 10583 10577 10569 10559 10549 10539 10530 10516 10501 10493 10482 10471 10462 10451 10436 10424 10409 10391 10378 10370 10360 10349 10340 10332 10325 10318 10313 10308 10303 10300 10296 10292 10287 10281
10693 10697 10700 10703 10705 10708 10710 10712 10714 10715 10716 10717 10718 10718 10718 10718 10719 10719 10720 10720 10719 10718 10716 10715 10713 10711 10708 10705 10702 10699 10696 10694 10692 10689 10687 10684 10682 10678 10673 10668 10663 10659 10653 10647 10642 10637 10632 10626 10620 10614 10608 10601 10594 10585 10576 10569 10559 10549 10538 10527 10520 10510 10495 10482 10470 10458 10453 10444 10429 10414 10398 10380 10370 10362 10351 10341 10332 10322 10313 10306 10299 10294 10289 10284 10281 10277 10272 10267
10693 10697 10700 10703 10705 10708 10709 10711 10713 10714 10715 10716 10717 10717 10718 10718 10719 10719 10719 10718 10717 10716 10714 10712 10710 10708 10706 10703 10700 10697 10695 10693 10691 10689 10686 10684 10680 10676 10671 10665 10660 10655 10650 10645 10640 10635 10630 10624 10618 10613 10607 10599 10589 10578 10569 10561 10552 10542 10532 10520 10509 10501 10488 10474 10462 10449 10441 10434 10420 10404 10385 10368 10360 10352 10342 10333 10323 10313 10303 10295 10288 10282 10277 10271 10266 10262 10257 10252
10694 10697 10700 10703 10705 10707 10709 10710 10712 10713 10715 10716 10716 10717 10717 10717 10718 10718 10717 10716 10715 10713 10712 10710 10708 10705 10702 10700 10697 10695 10693 10692 10690 10687 10685 10681 10678 10674 10668 10662 10657 10652 10648 10643 10638 10632 10627 10621 10616 10610 10602 10593 10583 10573 10562 10554 10546 10536 10525 10514 10501 10493 10483 10468 10453 10440 10429 10421 10410 10394 10373 10356 10348 10340 10333 10324 10313 10304 10295 10287 10280 10272 10266 10260 10254 10249 10244 10239
10694 10697 10700 10702 10704 10706 10708 10710 10711 10712 10714 10714 10715 10716 10716 10716 10716 10716 10715 10714 10712 10711 10709 10707 10705 10702 10700 10698 10696 10694 10693 10691 10689 10686 10683 10679 10675 10671 10666 10661 10655 10651 10646 10640 10635 10630 10624 10618 10612 10604 10596 10588 10579 10569 10558 10548 10540 10531 10519 10508 10496 10485 10479 10469 10451 10433 10418 10407 10399 10386 10364 10345 10337 10330 10321 10312 10302 10293 10286 10278 10270 10262 10256 10249 10242 10237 10231 10226
10694 10697 10699 10702 10704 10706 10708 10709 10710 10711 10713 10713 10714 10715 10715 10715 10715 10714 10713 10711 10710 10708 10707 10705 10703 10700 10699 10697 10696 10695 10693 10690 10687 10683 10680 10676 10673 10668 10664 10659 10654 10648 10643 10638 10632 10626 10620 10614 10607 10599 10592 10584 10575 10565 10555 10543 10532 10524 10514 10504 10492 10478 10467 10460 10448 10431 10413 10396 10385 10377 10358 10336 10326 10321 10310 10300 10292 10283 10275 10267 10259 10252 10245 10238 10231 10225 10219 10214
10694 10697 10699 10702 10704 10706 10707 10709 10710 10711 10712 10712 10713 10714 10714 10713 10713 10712 10711 10709 10708 10707 10705 10703 10701 10699 10698 10697 10695 10693 10690 10687 10684 10680 10677 10673 10670 10667 10662 10657 10651 10646 10641 10636 10629 10622 10615 10609 10602 10595 10588 10580 10571 10562 10553 10543 10531 10521 10510 10499 10488 10474 10459 10447 10438 10426 10411 10393 10375 10368 10357 10335 10319 10312 10302 10291 10282 10274 10265 10257 10249 10242 10235 10228 10220 10214 10208 10203
10694 10697 10699 10701 10703 10705 10707 10708 10709 10710 10711 10712 10712 10712 10712 10712 10711 10710 10709 10708 10706 10705 10703 10702 10700 10699 10698 10696 10694 10691 10688 10685 10682 10678 10675 10671 10668 10664 10659 10655 10650 10644 10638 10632 10625 10618 10611 10604 10597 10590 10583 10575 10567 10559 10550 10541 10531 10520 10509 10496 10482 10469 10455 10442 10431 10419 10405 10388 10370 10358 10349 10334 10316 10304 10293 10283 10274 10265 10256 10247 10239 10232 10224 10217 10210 10204 10198 10192
10694 10697 10699 10701 10703 10705 10706 10708 10709 10709 10710 10711 10711 10711 10710 10710 10709 10708 10707 10706 10705 10704 10702 10701 10700 10698 10696 10694 10692 10689 10686 10683 10680 10676 10673 10669 10664 10660 10657 10652 10648 10641 10634 10627 10620 10614 10608 10601 10594 10586 10578 10571 10563 10555 10546 10538 10529 10517 10505 10491 10477 10464 10451 10438 10425 10412 10397 10381 10365 10350 10337 10326 10314 10301 10289 10278 10268 10258 10248 10239 10231 10223 10215 10208 10201 10194 10188 10181
10694 10697 10699 10701 10703 10704 10706 10707 10708 10709 10710 10710 10710 10709 10709 10708 10707 10706 10706 10705 10704 10703 10702 10700 10699 10697 10695 10693 10690 10688 10685 10682 10679 10675 10671 10666 10662 10658 10654 10649 10644 10638 10631 10623 10617 10612 10605 10597 10590 10582 10574 10567 10560 10553 10545 10535 10524 10512 10499 10487 10474 10462 10449 10434 10420 10409 10397 10382 10366 10350 10335 10322 10310 10298 10286 10274 10264 10253 10243 10232 10223 10215 10207 10199 10192 10185 10178 10171
10694 10697 10699 10701 10703 10704 10706 10707 10708 10708 10709 10709 10708 10708 10707 10706 10706 10705 10705 10704 10703 10702 10701 10700 10698 10697 10694 10692 10689 10687 10684 10681 10677 10673 10669 10665 10660 10655 10650 10645 10639 10633 10627 10622 10616 10609 10601 10594 10587 10579 10571 10563 10556 10549 10540 10530 10519 10508 10497 10485 10472 10460 10447 10434 10420 10407 10395 10382 10367 10352 10336 10321 10306 10293 10281 10268 10256 10246 10237 10227 10217 10208 10199 10190 10182 10174 10166 10159
10694 10697 10699 10701 10703 10704 10705 10706 10707 10708 10708 10707 10707 10706 10706 10705 10705 10705 10704 10703 10703 10702 10700 10699 10697 10695 10693 10691 10689 10686 10682 10679 10675 10671 10667 10663 10659 10654 10648 10642 10634 10628 10625 10620 10613 10605 10598 10591 10584 10577 10570 10560 10551 10543 10534 10525 10516 10507 10497 10485 10471 10458 10446 10433 10420 10408 10395 10380 10363 10345 10327 10313 10300 10286 10273 10261 10249 10239 10229 10219 10210 10201 10192 10183 10174 10166 10157 10149
10695 10697 10699 10701 10702 10704 10705 10706 10706 10707 10706 10706 10705 10705 10705 10705 10704 10704 10703 10702 10702 10701 10700 10698 10696 10695 10693 10690 10688 10684 10681 10678 10674 10670 10666 10661 10656 10650 10644 10636 10630 10626 10621 10616 10610 10603 10596 10590 10582 10575 10568 10558 10548 10537 10528 10520 10512 10503 10495 10487 10476 10463 10449 10436 10420 10406 10391 10371 10350 10331 10312 10298 10288 10277 10266 10256 10243 10232 10221 10212 10203 10194 10185 10176 10167 10159 10150 10142
10695 10697 10699 10701 10702 10703 10704 10705 10706 10705 10705 10705 10704 10704 10704 10704 10704 10703 10703 10702 10701 10700 10699 10698 10696 10695 10692 10689 10686 10683 10679 10676 10672 10667 10662 10657 10652 10647 10642 10637 10633 10627 10620 10615 10610 10603 10595 10588 10580 10573 10566 10557 10547 10535 10525 10517 10508 10499 10489 10481 10476 10467 10454 10439 10421 10400 10378 10356 10336 10322 10308 10293 10280 10268 10257 10247 10235 10224 10215 10206 10197 10188 10178 10168 10159 10150 10141 10133
10695 10697 10699 10701 10702 10703 10704 10704 10704 10704 10704 10704 10704 10704 10704 10703 10703 10703 10703 10702 10701 10700 10699 10698 10696 10694 10691 10688 10684 10681 10678 10674 10670 10666 10662 10659 10655 10651 10646 10642 10636 10630 10622 10615 10608 10600 10592 10585 10578 10570 10563 10555 10547 10539 10529 10518 10507 10495 10483 10470 10459 10450 10438 10424 10408 10387 10367 10351 10333 10318 10306 10292 10277 10264 10251 10241 10231 10221 10211 10201 10191 10182 10173 10164 10154 10145 10135 10126
10696 10698 10699 10701 10702 10703 10703 10703 10703 10703 10703 10703 10703 10703 10703 10703 10703 10703 10702 10701 10701 10700 10699 10697 10695 10692 10689 10686 10683 10680 10677 10673 10670 10667 10663 10659 10655 10649 10644 10638 10633 10626 10619 10611 10605 10600 10593 10585 10576 10567 10558 10550 10542 10533 10523 10511 10497 10482 10468 10453 10437 10424 10412 10398 10384 10369 10355 10346 10335 10319 10305 10291 10276 10264 10251 10237 10227 10217 10206 10196 10187 10179 10169 10159 10149 10138 10129 10119
10696 10698 10699 10700 10701 10702 10702 10702 10702 10702 10702 10703 10703 10703 10703 10703 10703 10702 10702 10701 10701 10700 10698 10696 10694 10691 10688 10685 10683 10679 10676 10673 10669 10665 10662 10657 10652 10647 10642 10637 10630 10623 10616 10608 10601 10595 10589 10581 10572 10562 10552 10543 10534 10523 10511 10500 10488 10476 10462 10448 10434 10420 10406 10389 10372 10358 10345 10339 10335 10323 10304 10288 10272 10259 10246 10233 10222 10213 10204 10195 10184 10174 10162 10150 10140 10130 10120 10111
10696 10698 10699 10700 10700 10701 10701 10702 10702 10702 10702 10702 10702 10702 10702 10702 10702 10702 10702 10701 10700 10699 10698 10695 10693 10690 10688 10685 10682 10679 10675 10672 10668 10664 10660 10656 10651 10647 10641 10636 10630 10623 10616 10608 10598 10589 10581 10573 10564 10554 10545 10537 10529 10519 10509 10498 10487 10475 10463 10451 10438 10424 10413 10401 10387 10372 10356 10341 10331 10320 10304 10289 10275 10260 10248 10236 10224 10211 10200 10189 10177 10166 10155 10144 10133 10122 10111 10102
10696 10697 10698 10699 10700 10700 10701 10701 10701 10701 10701 10702 10702 10702 10702 10702 10702 10702 10702 10701 10700 10699 10697 10694 10692 10690 10687 10684 10681 10678 10674 10671 10667 10663 10659 10654 10649 10645 10640 10634 10628 10622 10614 10607 10598 10587 10578 10569 10560 10551 10542 10534 10525 10515 10505 10495 10484 10474 10464 10453 10437 10420 10408 10403 10399 10389 10373 10348 10325 10311 10300 10286 10273 10260 10247 10234 10221 10206 10193 10181 10170 10160 10150 10139 10128 10118 10107 10096
10696 10697 10698 10699 10700 10700 10701 10701 10701 10701 10701 10702 10702 10702 10702 10702 10702 10702 10701 10701 10699 10698 10696 10693 10691 10689 10686 10683 10680 10677 10674 10670 10666 10662 10657 10653 10648 10643 10638 10632 10626 10620 10613 10604 10596 10586 10576 10567 10559 10551 10541 10532 10522 10513 10502 10491 10481 10473 10462 10449 10438 10425 10410 10398 10390 10380 10368 10352 10329 10308 10292 10278 10266 10253 10240 10228 10215 10200 10186 10176 10167 10157 10148 10138 10127 10116 10105 10093
10695 10697 10698 10699 10699 10700 10700 10700 10701 10701 10702 10702 10702 10702 10702 10702 10702 10702 10701 10700 10699 10697 10695 10692 10690 10688 10685 10682 10679 10675 10672 10668 10664 10660 10656 10651 10647 10641 10636 10630 10624 10618 10612 10603 10595 10586 10576 10567 10559 10550 10541 10530 10520 10511 10503 10494 10485 10472 10458 10445 10433 10421 10404 10386 10371 10358 10348 10342 10332 10315 10296 10278 10262 10246 10232 10218 10206 10195 10184 10174 10165 10156 10147 10138 10127 10115 10104 10093
10695 10697 10698 10698 10699 10699 10700 10700 10701 10701 10702 10702 10702 10702 10702 10702 10702 10702 10701 10699 10698 10696 10694 10692 10689 10687 10684 10681 10678 10674 10671 10667 10663 10659 10655 10650 10644 10639 10633 10627 10622 10616 10610 10603 10594 10585 10575 10566 10557 10548 10538 10530 10522 10515 10506 10497 10485 10471 10460 10449 10435 10419 10402 10382 10365 10354 10343 10332 10323 10312 10295 10275 10255 10238 10223 10210 10199 10191 10182 10172 10162 10153 10143 10134 10124 10114 10104 10093
10695 10696 10697 10698 10699 10699 10700 10701 10702 10702 10702 10702 10702 10702 10702 10702 10702 10701 10700 10699 10697 10695 10693 10691 10688 10686 10683 10680 10677 10673 10670 10666 10662 10658 10653 10648 10642 10637 10631 10625 10619 10613 10608 10601 10594 10586 10576 10566 10557 10547 10539 10530 10521 10513 10503 10492 10482 10473 10463 10452 10441 10429 10415 10398 10378 10362 10348 10331 10313 10300 10288 10272 10254 10237 10222 10210 10199 10189 10179 10168 10157 10147 10137 10129 10120 10111 10101 10091
10695 10696 10697 10698 10699 10700 10701 10701 10702 10702 10702 10703 10702 10702 10702 10702 10701 10700 10699 10697 10696 10694 10692 10690 10687 10685 10682 10679 10676 10672 10669 10665 10661 10656 10651 10646 10641 10635 10630 10623 10616 10611 10605 10599 10593 10586 10577 10567 10558 10549 10540 10530 10518 10508 10501 10492 10482 10472 10460 10448 10437 10425 10412 10401 10386 10369 10354 10339 10319 10300 10284 10268 10253 10239 10226 10213 10201 10188 10177 10166 10154 10143 10134 10124 10115 10106 10097 10089
10696 10696 10697 10698 10699 10700 10701 10702 10702 10703 10703 10703 10702 10702 10702 10702 10701 10700 10698 10697 10695 10693 10691 10689 10687 10684 10681 10678 10674 10671 10667 10663 10659 10655 10650 10645 10640 10634 10628 10622 10614 10608 10601 10595 10590 10585 10578 10571 10562 10551 10540 10530 10522 10513 10503 10494 10483 10470 10458 10445 10433 10419 10405 10392 10378 10366 10357 10349 10336 10316 10295 10277 10262 10248 10234 10218 10203 10189 10177 10165 10153 10142 10132 10122 10112 10102 10094 10086
10695 10696 10697 10699 10700 10701 10701 10702 10703 10703 10703 10703 10702 10702 10702 10701 10700 10699 10697 10696 10694 10693 10690 10688 10685 10683 10679 10676 10673 10670 10666 10662 10658 10653 10649 10644 10639 10633 10627 10620 10613 10605 10598 10591 10585 10581 10577 10572 10565 10557 10548 10538 10529 10518 10504 10491 10480 10470 10457 10443 10429 10416 10403 10390 10377 10365 10355 10346 10337 10323 10305 10290 10276 10259 10243 10227 10211 10194 10179 10166 10156 10145 10132 10121 10111 10101 10092 10082
10695 10696 10697 10699 10701 10702 10702 10702 10703 10703 10703 10703 10702 10702 10701 10700 10699 10698 10697 10695 10694 10692 10689 10687 10684 10682 10679 10675 10672 10668 10665 10661 10657 10652 10648 10643 10638 10632 10625 10619 10612 10604 10596 10588 10581 10575 10570 10565 10561 10556 10551 10543 10532 10520 10506 10490 10476 10463 10451 10439 10428 10416 10405 10395 10386 10374 10357 10342 10332 10323 10309 10294 10280 10264 10249 10235 10219 10202 10185 10171 10158 10146 10135 10123 10112 10101 10090 10079
10696 10696 10697 10699 10701 10702 10703 10703 10703 10703 10703 10702 10702 10701 10701 10700 10699 10698 10696 10695 10693 10691 10688 10686 10683 10680 10677 10674 10671 10668 10664 10660 10656 10652 10647 10641 10636 10630 10624 10618 10611 10604 10596 10587 10578 10570 10563 10557 10550 10543 10535 10525 10515 10504 10493 10481 10469 10458 10447 10439 10430 10420 10410 10399 10389 10379 10363 10343 10327 10318 10311 10299 10285 10271 10255 10239 10224 10210 10195 10178 10162 10148 10136 10124 10113 10102 10091 10080
10696 10696 10697 10699 10701 10702 10703 10703 10703 10703 10702 10702 10701 10701 10700 10699 10698 10697 10695 10694 10692 10690 10687 10685 10682 10679 10676 10673 10670 10666 10663 10659 10655 10651 10646 10640 10635 10629 10623 10617 10610 10603 10596 10588 10579 10570 10560 10552 10544 10535 10526 10516 10506 10496 10486 10477 10468 10458 10449 10442 10433 10422 10412 10402 10390 10378 10366 10351 10334 10319 10310 10299 10284 10269 10256 10242 10227 10211 10196 10181 10166 10152 10139 10127 10115 10103 10091 10081
10696 10696 10697 10699 10701 10702 10703 10703 10703 10703 10702 10701 10701 10700 10700 10699 10697 10696 10695 10693 10691 10689 10686 10684 10681 10678 10675 10672 10669 10665 10661 10658 10653 10649 10644 10639 10634 10628 10622 10616 10610 10603 10596 10589 10581 10572 10562 10552 10543 10535 10526 10519 10510 10500 10489 10480 10471 10461 10452 10443 10433 10423 10413 10403 10392 10378 10364 10354 10340 10324 10310 10297 10282 10268 10256 10242 10225 10208 10192 10178 10163 10150 10138 10127 10115 10102 10090 10080
10696 10697 10698 10699 10700 10702 10703 10703 10703 10702 10702 10701 10701 10700 10699 10698 10697 10695 10694 10692 10690 10688 10685 10683 10680 10677 10674 10671 10667 10664 10660 10656 10652 10647 10643 10638 10633 10628 10622 10616 10610 10603 10597 10590 10582 10574 10565 10555 10545 10537 10528 10520 10512 10503 10494 10485 10474 10463 10454 10445 10437 10427 10416 10405 10392 10378 10363 10349 10336 10321 10306 10293 10284 10274 10260 10241 10222 10204 10189 10176 10164 10151 10139 10126 10114 10103 10092 10082
10696 10697 10698 10699 10700 10701 10702 10702 10702 10702 10701 10701 10700 10699 10698 10697 10696 10694 10693 10691 10689 10687 10684 10682 10679 10676 10673 10669 10666 10662 10658 10654 10650 10646 10641 10637 10632 10627 10622 10616 10610 10603 10596 10589 10582 10575 10567 10558 10548 10539 10530 10522 10514 10506 10498 10489 10478 10466 10457 10449 10440 10428 10417 10404 10390 10377 10364 10349 10335 10321 10308 10296 10287 10275 10258 10242 10227 10213 10198 10186 10174 10161 10146 10131 10118 10106 10096 10085
10696 10697 10698 10699 10700 10701 10702 10702 10701 10701 10701 10700 10699 10699 10698 10696 10695 10693 10692 10690 10688 10686 10683 10680 10678 10675 10671 10668 10664 10661 10657 10653 10649 10645 10641 10636 10631 10626 10621 10615 10608 10602 10595 10589 10583 10575 10568 10560 10551 10542 10533 10525 10516 10507 10499 10491 10481 10472 10463 10452 10440 10430 10420 10408 10395 10382 10369 10353 10338 10325 10316 10306 10293 10276 10260 10247 10235 10224 10212 10198 10183 10167 10151 10137 10124 10112 10100 10088
10697 10698 10698 10699 10700 10700 10701 10701 10701 10701 10700 10699 10699 10698 10697 10695 10694 10692 10691 10689 10687 10685 10682 10679 10676 10673 10670 10667 10663 10660 10656 10652 10648 10644 10640 10635 10630 10625 10619 10613 10607 10600 10594 10588 10582 10575 10569 10561 10553 10544 10536 10527 10518 10510 10501 10491 10483 10476 10467 10454 10442 10431 10419 10405 10391 10377 10365 10354 10343 10332 10320 10305 10289 10277 10268 10255 10240 10229 10218 10204 10187 10171 10156 10142 10129 10116 10104 10092
10697 10698 10698 10699 10699 10700 10700 10700 10700 10700 10699 10699 10698 10697 10696 10694 10693 10691 10690 10688 10686 10683 10681 10678 10675 10672 10669 10665 10662 10658 10655 10651 10648 10643 10639 10634 10629 10624 10618 10612 10606 10600 10594 10588 10581 10575 10568 10561 10554 10546 10537 10528 10520 10510 10501 10495 10489 10480 10466 10453 10441 10429 10417 10406 10393 10379 10365 10353 10342 10330 10315 10298 10284 10275 10267 10255 10243 10230 10218 10204 10190 10176 10161 10147 10133 10120 10108 10096